[[{"header":{"parameterUnit":"m.s-1","parameterCategory":1,"la1":30.2991,"la2":30.254,"lo1":-89.0895,"lo2":-89.0444,"dy":0.0017,"dx":0.0017,"nx":28,"ny":28,"refTime":"2024-06-12T21:00:00:Z","depth":0,"parameterNumber":2,"parameterNumberName":"U-component_of_WINDS"},"data":[0,0,0,0,0,0,0,0,0,0,0,0,0,0,0,0,0,0,0,0,0,0,0,0,0,0,0,0,0,0,0,0,0,0,0,0,0,0,0,0,0,0,0,0,0,0,0,0,0,0,0,0,0,0,0,0,0,0,1.7279,1.728,0,1.7414,1.7415,1.7417,1.7469,1.7469,1.7469,1.7468,1.7604,1.7608,1.7612,0,0,0,0,0,0,0,0,0,0,0,0,0,1.7063,1.7067,1.7279,1.728,1.7282,1.7413,1.7415,1.7417,1.7469,1.7469,1.7468,1.7468,1.7603,1.7607,1.7612,0,0,0,0,0,0,0,0,0,0,0,0,0,1.7173,1.7068,1.7278,1.7324,1.7329,1.7413,1.7415,1.7418,1.7469,1.7469,1.7468,1.7468,1.7601,1.7607,1.7613,1.766,0,0,1.7631,1.7633,0,0,0,0,0,0,0,0,1.7167,1.7181,1.7316,1.7321,1.7327,1.7424,1.7389,1.7499,1.747,1.7416,1.7468,1.7468,1.7544,1.7555,1.7581,1.7667,1.7672,1.7631,1.7635,1.7638,1.7639,0,0,0,0,0,0,0,1.7159,1.7175,1.7332,1.7317,1.7325,1.7337,1.7352,1.741,1.7482,1.7421,1.7425,1.744,1.7548,1.7576,1.7585,1.7674,1.7631,1.7637,1.764,1.7643,1.7805,1.7805,0,0,0,0,0,0,1.7144,1.7169,1.7328,1.7336,1.7244,1.7341,1.7358,1.7393,1.7481,1.7494,1.7441,1.7442,1.7566,1.7578,1.759,1.7651,1.7638,1.7643,1.7647,1.7804,1.7805,1.7805,0,0,0,0,0,0,1.7139,1.7158,1.7322,1.7254,1.7275,1.7345,1.7385,1.7396,1.7425,1.7496,1.7509,1.7456,1.7566,1.7582,1.7642,1.7656,1.7646,1.7651,1.7803,1.7804,1.7805,1.7773,0,0,0,0,0,0,1.7133,1.7156,1.7175,1.7254,1.7279,1.7373,1.7386,1.7399,1.7435,1.7438,1.7514,1.7526,1.7567,1.7633,1.7648,1.7664,1.7656,1.7802,1.7803,1.7805,1.7773,1.7773,1.7773,0,0,0,0,0,1.7125,1.7161,1.7176,1.7195,1.7305,1.7374,1.7388,1.7434,1.7436,1.7456,1.7501,1.7524,1.7652,1.7639,1.7656,1.7674,1.7801,1.7803,1.7805,1.7773,1.7773,1.7773,0,0,0,0,0,0,1.7081,1.7172,1.719,1.7252,1.7305,1.7383,1.7409,1.7433,1.7486,1.7487,1.7541,1.7558,1.7614,1.765,1.7634,1.7725,1.7728,1.7734,1.7699,1.7699,1.7699,1.7689,1.7661,0,0,0,0,0,1.7079,1.7129,1.7204,1.7252,1.7277,1.7338,1.737,1.7401,1.7458,1.748,1.7531,1.7584,1.7636,1.767,1.7722,1.7779,1.7796,1.78,1.7799,1.7799,1.7803,1.7835,1.7837,1.7811,1.7811,1.7811,0,0,1.7075,1.713,1.7158,1.7244,1.7289,1.7338,1.7357,1.7408,1.7445,1.7488,1.7548,1.7587,1.765,1.7709,1.7737,1.7741,1.7814,1.7801,1.78,1.7804,1.7837,1.7839,1.7841,1.7812,1.7812,1.7812,0,0,1.7091,1.7139,1.7183,1.7228,1.7295,1.7335,1.7346,1.742,1.7448,1.7509,1.7543,1.7586,1.7676,1.7719,1.7753,1.7785,1.7808,1.7801,1.78,1.783,1.7832,1.7834,1.7845,1.7849,1.7804,1.7804,1.7804,0,1.7077,1.7153,1.7203,1.7252,1.7289,1.7331,1.7375,1.7416,1.7496,1.752,1.7524,1.7636,1.7682,1.7751,1.7759,1.7785,1.7798,1.7792,1.7828,1.7831,1.7833,1.7845,1.7849,1.7803,1.7803,1.7803,1.7803,0,1.7132,1.7184,1.7211,1.7289,1.7329,1.7375,1.7431,1.7465,1.7492,1.7532,1.7594,1.765,1.7714,1.7732,1.7759,1.7805,1.7806,1.7818,1.7823,1.7834,1.7845,1.785,1.7801,1.7802,1.7802,1.7802,0,0,1.7125,1.7229,1.7238,1.7274,1.7351,1.7392,1.744,1.7503,1.7531,1.7585,1.7626,1.7701,1.7712,1.7751,1.7783,1.781,1.7831,1.7819,1.7821,1.7819,1.7884,1.7874,1.7879,1.7847,1.7848,1.7848,1.7879,0,1.7151,1.7241,1.7286,1.7355,1.7403,1.7444,1.7485,1.7537,1.7575,1.762,1.7662,1.7714,1.7726,1.7749,1.7777,1.7822,1.7845,1.7821,1.7885,1.7886,1.7867,1.7885,1.7875,1.7901,1.7884,1.7884,1.7885,0,1.7195,1.7249,1.7323,1.7394,1.7416,1.7453,1.7514,1.7558,1.7616,1.7642,1.7684,1.7716,1.7767,1.7768,1.7839,1.7822,1.7851,1.7877,1.7879,1.7886,1.7886,1.7892,1.791,1.7914,1.7893,1.7892,1.7891,0,1.7181,1.7273,1.7329,1.7358,1.7443,1.7467,1.7504,1.7562,1.7597,1.765,1.7673,1.7732,1.7763,1.7807,1.7853,1.785,1.7919,1.7925,1.7942,1.794,1.7954,1.7953,1.7976,1.7973,1.7973,1.7973,1.7973,0,1.7206,1.7249,1.7324,1.7358,1.7408,1.7459,1.7507,1.7546,1.7597,1.7639,1.7677,1.7716,1.7775,1.782,1.7856,1.7909,1.7923,1.7945,1.7954,1.7941,1.7938,1.7961,1.796,1.7974,1.7974,1.7973,1.7973,0,1.72,1.7251,1.7315,1.739,1.741,1.7443,1.7507,1.7541,1.7581,1.7634,1.7649,1.7711,1.7767,1.7817,1.789,1.7915,1.7968,1.798,1.7949,1.7953,1.7967,1.7965,1.8006,1.8014,1.8005,1.8005,1.8005,0,1.7212,1.7246,1.7325,1.7356,1.7392,1.7442,1.7478,1.753,1.7565,1.7635,1.766,1.7719,1.7768,1.7854,1.7906,1.7962,1.7975,1.7986,1.7984,1.797,1.7975,1.7972,1.7976,1.7985,1.7985,1.7985,1.7984,0,1.7228,1.7252,1.7303,1.7362,1.7404,1.7453,1.7504,1.7527,1.7588,1.7626,1.7683,1.7722,1.7797,1.7854,1.7916,1.7952,1.7978,1.7985,1.7992,1.7979,1.7959,1.797,1.7947,1.7983,1.7984,1.7984,1.7984,1.7984,1.7231,1.7263,1.7324,1.7379,1.7422,1.7468,1.7504,1.7549,1.7598,1.7664,1.7691,1.7749,1.7806,1.7892,1.7929,1.7974,1.7979,1.7989,1.7992,1.7993,1.7991,1.7952,1.7986,1.7986,1.7986,1.7986,1.7986,0,1.7249,1.729,1.734,1.7409,1.7452,1.7474,1.753,1.7565,1.7616,1.7667,1.7715,1.7781,1.7836,1.7892,1.795,1.7976,1.7989,1.7989,1.7988,1.7996,1.7983,1.7971,1.7978,1.7978,1.7978,1.7978,1.7978,1.7978,1.7263,1.7318,1.7349,1.7426,1.7467,1.7525,1.7555,1.7597,1.7639,1.7711,1.7757,1.7793,1.7846,1.7909,1.7961,1.7975,1.7995,1.7992,1.801,1.7997,1.7997,1.7997,1.7986,1.7996,1.7996,1.8019,1.8019,1.8019]},{"header":{"parameterUnit":"m.s-1","parameterCategory":1,"la1":30.2991,"la2":30.254,"lo1":-89.0895,"lo2":-89.0444,"dy":0.0017,"dx":0.0017,"nx":28,"ny":28,"refTime":"2024-06-12T21:00:00:Z","depth":0,"parameterNumber":3,"parameterNumberName":"V-component_of_WINDS"},"data":[0,0,0,0,0,0,0,0,0,0,0,0,0,0,0,0,0,0,0,0,0,0,0,0,0,0,0,0,0,0,0,0,0,0,0,0,0,0,0,0,0,0,0,0,0,0,0,0,0,0,0,0,0,0,0,0,0,0,1.521,1.5209,0,1.5123,1.5122,1.5121,1.5058,1.5057,1.5057,1.5056,1.4963,1.4962,1.496,0,0,0,0,0,0,0,0,0,0,0,0,0,1.5318,1.5316,1.521,1.5209,1.5208,1.5123,1.5122,1.5121,1.5058,1.5057,1.5057,1.5056,1.4964,1.4962,1.4959,0,0,0,0,0,0,0,0,0,0,0,0,0,1.5255,1.5316,1.521,1.5166,1.5162,1.5123,1.5122,1.512,1.5058,1.5057,1.5056,1.5056,1.4965,1.4962,1.4959,1.4956,0,0,1.495,1.4949,0,0,0,0,0,0,0,0,1.5259,1.5251,1.5174,1.5169,1.5164,1.5101,1.5126,1.5065,1.5058,1.5097,1.5056,1.5055,1.5009,1.5003,1.4988,1.4952,1.4948,1.495,1.4948,1.4947,1.4946,0,0,0,0,0,0,0,1.5263,1.5254,1.5176,1.5173,1.5167,1.515,1.514,1.5114,1.5059,1.5094,1.5089,1.508,1.5007,1.4991,1.4985,1.4947,1.495,1.4947,1.4945,1.4944,1.4903,1.4903,0,0,0,0,0,0,1.5275,1.5258,1.5178,1.5173,1.521,1.5148,1.5137,1.5122,1.5059,1.5049,1.5081,1.5077,1.4997,1.4989,1.4982,1.4974,1.4947,1.4944,1.4942,1.4902,1.4903,1.4904,0,0,0,0,0,0,1.5277,1.5268,1.5182,1.5214,1.5202,1.5147,1.513,1.512,1.5105,1.5049,1.5038,1.5075,1.4996,1.4986,1.4963,1.497,1.4943,1.494,1.4901,1.4902,1.4903,1.4958,0,0,0,0,0,0,1.5281,1.527,1.5269,1.5215,1.5201,1.5166,1.5131,1.5119,1.51,1.5095,1.5041,1.5031,1.4994,1.4968,1.496,1.4965,1.4938,1.49,1.4902,1.4903,1.4956,1.4961,1.4966,0,0,0,0,0,1.5285,1.5288,1.5269,1.526,1.5199,1.5167,1.5158,1.5117,1.5101,1.5099,1.5063,1.5033,1.4971,1.4966,1.4957,1.4961,1.49,1.4901,1.4903,1.4954,1.496,1.4966,0,0,0,0,0,0,1.5343,1.528,1.5259,1.5245,1.5212,1.5156,1.5153,1.5125,1.5095,1.5091,1.504,1.5028,1.501,1.4983,1.498,1.4954,1.4931,1.4931,1.4973,1.4979,1.4984,1.499,1.4935,0,0,0,0,0,1.5354,1.5335,1.528,1.5272,1.5257,1.5208,1.5192,1.5163,1.5126,1.5112,1.5074,1.5038,1.501,1.4993,1.4964,1.4952,1.4938,1.495,1.4955,1.4959,1.4959,1.4949,1.4954,1.4909,1.4909,1.4909,0,0,1.5377,1.534,1.5331,1.5283,1.5254,1.5233,1.5197,1.5176,1.516,1.5108,1.5084,1.5055,1.5012,1.4994,1.4984,1.4971,1.4969,1.4961,1.4965,1.4963,1.4951,1.4956,1.496,1.491,1.4909,1.4909,0,0,1.5408,1.5379,1.5369,1.5341,1.5298,1.5265,1.5263,1.5211,1.519,1.5166,1.5126,1.5105,1.5059,1.5029,1.5008,1.5027,1.4998,1.5019,1.5045,1.5036,1.504,1.5043,1.5048,1.5051,1.502,1.502,1.502,0,1.5442,1.541,1.5367,1.5349,1.5329,1.5282,1.527,1.5245,1.5194,1.5181,1.5167,1.5107,1.5074,1.5048,1.5053,1.5038,1.5032,1.5025,1.5043,1.5045,1.5047,1.5052,1.5055,1.5023,1.5022,1.5022,1.5022,0,1.5453,1.5432,1.5429,1.5382,1.5361,1.5347,1.53,1.5284,1.5256,1.5225,1.5199,1.5159,1.5121,1.5112,1.5085,1.5082,1.5075,1.5053,1.5028,1.5055,1.5059,1.5061,1.5027,1.5026,1.5025,1.5024,0,0,1.5518,1.5448,1.5447,1.5425,1.5374,1.5356,1.5338,1.5302,1.5289,1.5255,1.5239,1.52,1.5179,1.5155,1.5124,1.5116,1.5132,1.5094,1.5092,1.5102,1.5125,1.5142,1.5145,1.5113,1.5113,1.5113,1.5129,0,1.5541,1.5509,1.5469,1.545,1.5429,1.5383,1.5368,1.5334,1.5304,1.528,1.5246,1.5219,1.5194,1.5179,1.517,1.5133,1.5136,1.5131,1.5095,1.5095,1.5107,1.5147,1.5165,1.5181,1.513,1.513,1.513,0,1.5563,1.5533,1.5512,1.5462,1.5451,1.5438,1.5401,1.538,1.534,1.5318,1.5292,1.5258,1.5236,1.5215,1.5183,1.518,1.5163,1.5142,1.5142,1.5136,1.5114,1.5142,1.5186,1.5188,1.5132,1.5132,1.5132,0,1.5612,1.5566,1.5547,1.5529,1.5471,1.5462,1.5437,1.5397,1.5377,1.5344,1.5331,1.5295,1.5276,1.5249,1.5206,1.5195,1.5178,1.5153,1.5158,1.5159,1.5156,1.5157,1.5197,1.5147,1.5147,1.5147,1.5147,0,1.5641,1.563,1.5568,1.5557,1.5542,1.5496,1.5482,1.5453,1.5417,1.5397,1.5356,1.5338,1.5283,1.5259,1.5225,1.5203,1.5194,1.5175,1.5166,1.5179,1.5181,1.5166,1.5164,1.5147,1.5147,1.5147,1.5147,0,1.5693,1.5652,1.5628,1.5574,1.556,1.5552,1.5505,1.5491,1.5459,1.5435,1.5426,1.5374,1.5343,1.5298,1.5253,1.523,1.5213,1.5199,1.5227,1.5222,1.5229,1.5228,1.526,1.5262,1.5212,1.5212,1.5213,0,1.5714,1.5705,1.565,1.5635,1.5611,1.5587,1.5567,1.552,1.5501,1.5454,1.5446,1.5412,1.5382,1.5334,1.5292,1.5257,1.5241,1.5255,1.5235,1.5248,1.524,1.5241,1.5239,1.5259,1.526,1.526,1.5261,0,1.5756,1.5736,1.5709,1.5675,1.5653,1.5623,1.5592,1.5581,1.5527,1.5507,1.5476,1.5453,1.5407,1.5373,1.5333,1.5305,1.5273,1.5268,1.5266,1.5279,1.5295,1.5286,1.5239,1.5267,1.5266,1.5266,1.5265,1.5265,1.5792,1.5781,1.5741,1.5712,1.5684,1.5655,1.564,1.5605,1.5578,1.5538,1.5512,1.5481,1.544,1.5382,1.5356,1.533,1.5317,1.5316,1.5316,1.5316,1.532,1.53,1.5323,1.5322,1.5322,1.5322,1.5322,0,1.5831,1.5803,1.5777,1.5735,1.5712,1.5686,1.5649,1.5631,1.5606,1.557,1.5542,1.5505,1.5472,1.5427,1.539,1.5378,1.5362,1.5369,1.5369,1.5363,1.5334,1.5338,1.5382,1.5382,1.5382,1.5382,1.5382,1.5382,1.5849,1.5828,1.5803,1.5768,1.5739,1.571,1.5691,1.5664,1.5635,1.5596,1.5569,1.554,1.55,1.546,1.5428,1.5415,1.5403,1.5415,1.5398,1.5371,1.5366,1.536,1.5364,1.5413,1.5413,1.5428,1.5429,1.5429]}]]